Location: Newark
(51.3318°N, 0.0053°E)
Time: 09:34:49
(UTC+00:00)

Sep Motor Cover - Pass Details

Date: 14 December 2022
Orbit: 663 x 834 km, 71.0° (Epoch: 05 February)

Event Time Altitude Azimuth Distance (km) Brightness Sun altitude
Rises 19:06:15 0° 329° (NNW) 3,297 10.1 -29.0°
Reaches altitude 10° 19:09:49 10° 353° (N) 2,397 9.1 -29.5°
Enters shadow 19:10:13 11° 357° (N) 2,326 9.0 -29.6°
